EXS4KU EGCC-LTBS

Flight info

Callsign EXS4KU
Flight time 4h 15m
Altitude 35000
Route LISTO L612 HON L15 MOTOX RUCAC LESDO ETINO BEGAR TRA SUXAN PEVAL UNIPA BARIT POD ENFAR TALAS UN130 TSL RIKSO UP14 ODNOD UT491 SONUP
Aircraft B738/L-V/N

Departure

Time 2026-04-25 08:44
Airport Manchester Airport (EGCC)

Arrival

Time 2026-04-25 13:00
Airport Dalaman International Airport (LTBS)
Time Latitude Longitude Altitude Speed Heading
2026-04-25 08:10 53.36669 -2.28550 254 ft 0 kts 135°
2026-04-25 08:31 53.36683 -2.28574 254 ft 4 kts 135°
2026-04-25 08:31 53.36697 -2.28599 254 ft 4 kts 158°
2026-04-25 08:32 53.36715 -2.28592 254 ft 4 kts 224°
2026-04-25 08:32 53.36708 -2.28603 254 ft 4 kts 224°
2026-04-25 08:32 53.36689 -2.28634 254 ft 4 kts 224°
2026-04-25 08:32 53.36672 -2.28663 254 ft 1 kts 224°
2026-04-25 08:33 53.36671 -2.28664 254 ft 0 kts 224°
2026-04-25 08:34 53.36664 -2.28676 254 ft 4 kts 224°
2026-04-25 08:35 53.36641 -2.28728 254 ft 7 kts 242°
2026-04-25 08:35 53.36617 -2.28795 254 ft 7 kts 212°
2026-04-25 08:35 53.36578 -2.28759 254 ft 7 kts 129°
2026-04-25 08:35 53.36546 -2.28701 254 ft 7 kts 135°
2026-04-25 08:36 53.36509 -2.28638 254 ft 8 kts 134°
2026-04-25 08:36 53.36469 -2.28569 254 ft 8 kts 135°
2026-04-25 08:36 53.36421 -2.28481 254 ft 13 kts 123°
2026-04-25 08:36 53.36382 -2.28348 254 ft 13 kts 129°
2026-04-25 08:37 53.36320 -2.28242 254 ft 13 kts 134°
2026-04-25 08:37 53.36257 -2.28136 254 ft 14 kts 135°
2026-04-25 08:37 53.36206 -2.28050 254 ft 0 kts 135°
2026-04-25 08:39 53.36186 -2.28023 254 ft 6 kts 139°
2026-04-25 08:39 53.36149 -2.27965 254 ft 9 kts 140°
2026-04-25 08:39 53.36099 -2.27898 254 ft 10 kts 142°
2026-04-25 08:39 53.36031 -2.27903 254 ft 11 kts 206°
2026-04-25 08:40 53.35959 -2.27863 254 ft 12 kts 154°
2026-04-25 08:40 53.35879 -2.27851 253 ft 13 kts 185°
2026-04-25 08:40 53.35778 -2.27867 248 ft 16 kts 186°
2026-04-25 08:40 53.35654 -2.27892 241 ft 19 kts 188°
2026-04-25 08:41 53.35556 -2.28037 235 ft 19 kts 223°
2026-04-25 08:41 53.35437 -2.28157 237 ft 22 kts 188°
2026-04-25 08:41 53.35294 -2.28217 233 ft 22 kts 211°
2026-04-25 08:41 53.35183 -2.28400 229 ft 23 kts 230°
2026-04-25 08:42 53.35084 -2.28606 229 ft 22 kts 229°
2026-04-25 08:42 53.35002 -2.28762 226 ft 17 kts 225°
2026-04-25 08:42 53.34921 -2.28898 224 ft 17 kts 227°
2026-04-25 08:42 53.34830 -2.29062 223 ft 21 kts 227°
2026-04-25 08:43 53.34740 -2.29246 214 ft 21 kts 232°
2026-04-25 08:43 53.34620 -2.29344 213 ft 20 kts 175°
2026-04-25 08:43 53.34539 -2.29222 213 ft 11 kts 66°
2026-04-25 08:43 53.34589 -2.29122 214 ft 12 kts 49°
2026-04-25 08:44 53.34788 -2.28707 227 ft 82 kts 51°
2026-04-25 08:44 53.35300 -2.27649 239 ft 149 kts 51°
2026-04-25 08:44 53.36055 -2.26143 525 ft 182 kts 49°
2026-04-25 08:44 53.36931 -2.24561 1380 ft 187 kts 50°
2026-04-25 08:45 53.37605 -2.22646 2125 ft 203 kts 78°
2026-04-25 08:45 53.37474 -2.20216 2343 ft 224 kts 117°
2026-04-25 08:45 53.36368 -2.18301 2677 ft 236 kts 148°
2026-04-25 08:45 53.34855 -2.16933 2933 ft 259 kts 165°
2026-04-25 08:46 53.33044 -2.16858 3525 ft 265 kts 188°
2026-04-25 08:46 53.31206 -2.17202 4360 ft 267 kts 187°
2026-04-25 08:46 53.29346 -2.17513 5182 ft 270 kts 186°
2026-04-25 08:46 53.27470 -2.17821 5965 ft 272 kts 186°
2026-04-25 08:47 53.25570 -2.18129 6706 ft 276 kts 186°
2026-04-25 08:47 53.23647 -2.18434 7453 ft 280 kts 186°
2026-04-25 08:47 53.21693 -2.18744 8197 ft 283 kts 186°
2026-04-25 08:47 53.19721 -2.19055 8900 ft 287 kts 186°
2026-04-25 08:48 53.17731 -2.19369 9599 ft 290 kts 186°
2026-04-25 08:48 53.15700 -2.19689 10338 ft 292 kts 186°
2026-04-25 08:48 53.13629 -2.19531 10682 ft 312 kts 164°
2026-04-25 08:48 53.11541 -2.18200 10892 ft 333 kts 158°
2026-04-25 08:49 53.09345 -2.16645 11157 ft 350 kts 157°
2026-04-25 08:49 53.07089 -2.15028 11718 ft 356 kts 157°
2026-04-25 08:49 53.04803 -2.13399 12406 ft 359 kts 158°
2026-04-25 08:49 53.02489 -2.11765 13109 ft 362 kts 158°
2026-04-25 08:50 53.00160 -2.10137 13777 ft 364 kts 158°
2026-04-25 08:50 52.97808 -2.08505 14400 ft 368 kts 158°
2026-04-25 08:50 52.95435 -2.06865 15035 ft 371 kts 158°
2026-04-25 08:50 52.93050 -2.05224 15659 ft 374 kts 158°
2026-04-25 08:51 52.90633 -2.03564 16237 ft 378 kts 159°
2026-04-25 08:51 52.88193 -2.01891 16823 ft 381 kts 159°
2026-04-25 08:51 52.85741 -2.00213 17395 ft 384 kts 159°
2026-04-25 08:51 52.83252 -1.98511 17947 ft 387 kts 159°
2026-04-25 08:52 52.80750 -1.96803 18431 ft 392 kts 159°
2026-04-25 08:52 52.78206 -1.95068 18964 ft 395 kts 159°
2026-04-25 08:52 52.75663 -1.93336 19499 ft 398 kts 159°
2026-04-25 08:52 52.73090 -1.91586 20003 ft 401 kts 159°
2026-04-25 08:53 52.70504 -1.89829 20502 ft 404 kts 159°
2026-04-25 08:53 52.67897 -1.88061 20975 ft 407 kts 159°
2026-04-25 08:53 52.65264 -1.86278 21433 ft 410 kts 160°
2026-04-25 08:53 52.62620 -1.84488 21887 ft 413 kts 160°
2026-04-25 08:54 52.59959 -1.82689 22332 ft 416 kts 160°
2026-04-25 08:54 52.57269 -1.80873 22774 ft 418 kts 160°
2026-04-25 08:54 52.54564 -1.79049 23192 ft 421 kts 160°
2026-04-25 08:54 52.51849 -1.77221 23577 ft 424 kts 160°
2026-04-25 08:55 52.49110 -1.75379 23980 ft 426 kts 160°
2026-04-25 08:55 52.46359 -1.73530 24372 ft 429 kts 160°
2026-04-25 08:55 52.43598 -1.71678 24767 ft 431 kts 160°
2026-04-25 08:55 52.40813 -1.69814 25154 ft 433 kts 160°
2026-04-25 08:56 52.38064 -1.67926 25527 ft 436 kts 156°
2026-04-25 08:56 52.35402 -1.65374 25893 ft 441 kts 147°
2026-04-25 08:56 52.33032 -1.62148 26245 ft 446 kts 137°
2026-04-25 08:56 52.30880 -1.58481 26607 ft 449 kts 135°
2026-04-25 08:57 52.28748 -1.54753 26930 ft 451 kts 135°
2026-04-25 08:57 52.26602 -1.51000 27250 ft 452 kts 135°
2026-04-25 08:57 52.24472 -1.47305 27560 ft 454 kts 136°
2026-04-25 08:57 52.22269 -1.43520 27858 ft 456 kts 136°
2026-04-25 08:58 52.20092 -1.39808 28150 ft 458 kts 136°
2026-04-25 08:58 52.17853 -1.36009 28459 ft 459 kts 136°
2026-04-25 08:58 52.15667 -1.32312 28740 ft 461 kts 136°
2026-04-25 08:58 52.13438 -1.28548 29005 ft 463 kts 136°
2026-04-25 08:59 52.11172 -1.24725 29283 ft 464 kts 136°
2026-04-25 08:59 52.08949 -1.20978 29543 ft 466 kts 136°
2026-04-25 08:59 52.06667 -1.17135 29830 ft 467 kts 136°
2026-04-25 08:59 52.04410 -1.13340 30211 ft 465 kts 136°
2026-04-25 09:00 52.02178 -1.09594 30590 ft 462 kts 137°
2026-04-25 09:00 51.99962 -1.05894 30928 ft 462 kts 137°
2026-04-25 09:00 51.97726 -1.02169 31235 ft 461 kts 137°
2026-04-25 09:00 51.95505 -0.98462 31661 ft 456 kts 137°
2026-04-25 09:01 51.93294 -0.94777 32080 ft 454 kts 137°
2026-04-25 09:01 51.91102 -0.91128 32366 ft 453 kts 137°
2026-04-25 09:01 51.88894 -0.87458 32595 ft 454 kts 137°
2026-04-25 09:01 51.86693 -0.83806 32862 ft 454 kts 137°
2026-04-25 09:02 51.84493 -0.80156 33194 ft 452 kts 137°
2026-04-25 09:02 51.82307 -0.76534 33482 ft 450 kts 137°
2026-04-25 09:02 51.80117 -0.72915 33735 ft 450 kts 137°
2026-04-25 09:02 51.77926 -0.69302 33961 ft 449 kts 137°
2026-04-25 09:03 51.75745 -0.65715 34215 ft 449 kts 137°
2026-04-25 09:03 51.73555 -0.62117 34444 ft 448 kts 137°
2026-04-25 09:03 51.71373 -0.58539 34646 ft 448 kts 137°
2026-04-25 09:03 51.69189 -0.54960 34844 ft 449 kts 137°
2026-04-25 09:04 51.67008 -0.51380 35062 ft 447 kts 137°
2026-04-25 09:04 51.64816 -0.47800 35213 ft 448 kts 137°
2026-04-25 09:04 51.62623 -0.44227 35220 ft 451 kts 137°
2026-04-25 09:05 51.58208 -0.37042 35239 ft 451 kts 137°
2026-04-25 09:05 51.53822 -0.29918 35231 ft 446 kts 137°
2026-04-25 09:06 51.49467 -0.22864 35238 ft 444 kts 137°
2026-04-25 09:06 51.45121 -0.15848 35240 ft 442 kts 137°
2026-04-25 09:07 51.40784 -0.08865 35245 ft 442 kts 137°
2026-04-25 09:07 51.36445 -0.01897 35240 ft 442 kts 137°
2026-04-25 09:08 51.32571 0.05768 35238 ft 448 kts 122°
2026-04-25 09:08 51.30036 0.14988 35246 ft 458 kts 112°
2026-04-25 09:09 51.27688 0.24544 35247 ft 465 kts 112°
2026-04-25 09:09 51.25286 0.34131 35234 ft 466 kts 113°
2026-04-25 09:10 51.22841 0.43697 35236 ft 465 kts 113°
2026-04-25 09:10 51.20378 0.53254 35237 ft 465 kts 114°
2026-04-25 09:11 51.16683 0.67519 35238 ft 463 kts 114°
2026-04-25 09:11 51.14242 0.76903 35239 ft 462 kts 114°
2026-04-25 09:12 51.11771 0.86360 35238 ft 461 kts 114°
2026-04-25 09:12 51.09302 0.95774 35238 ft 461 kts 114°
2026-04-25 09:13 51.06827 1.05178 35243 ft 461 kts 114°
2026-04-25 09:13 51.04336 1.14582 35238 ft 462 kts 114°
2026-04-25 09:14 51.01833 1.23987 35242 ft 462 kts 114°
2026-04-25 09:14 50.99317 1.33413 35238 ft 464 kts 114°
2026-04-25 09:15 50.96776 1.42901 35237 ft 465 kts 114°
2026-04-25 09:15 50.94253 1.52271 35233 ft 466 kts 114°
2026-04-25 09:16 50.91698 1.61721 35229 ft 466 kts 114°
2026-04-25 09:16 50.89079 1.71078 35224 ft 467 kts 120°
2026-04-25 09:17 50.85172 1.79219 35227 ft 463 kts 138°
2026-04-25 09:17 50.82827 1.82732 35244 ft 463 kts 139°
2026-04-25 09:18 50.78116 1.89669 35233 ft 463 kts 139°
2026-04-25 09:18 50.73411 1.96648 35229 ft 464 kts 138°
2026-04-25 09:19 50.68719 2.03659 35224 ft 464 kts 138°
2026-04-25 09:19 50.64042 2.10655 35234 ft 465 kts 138°
2026-04-25 09:20 50.60131 2.16491 35223 ft 465 kts 138°
2026-04-25 09:20 50.55419 2.23498 35224 ft 466 kts 138°
2026-04-25 09:21 50.50705 2.30487 35219 ft 466 kts 138°
2026-04-25 09:21 50.45984 2.37468 35222 ft 467 kts 138°
2026-04-25 09:22 50.41250 2.44449 35221 ft 467 kts 138°
2026-04-25 09:22 50.36516 2.51408 35221 ft 466 kts 138°
2026-04-25 09:23 50.31780 2.58350 35210 ft 467 kts 138°
2026-04-25 09:23 50.27047 2.65266 35213 ft 466 kts 138°
2026-04-25 09:24 50.22301 2.72184 35211 ft 466 kts 138°
2026-04-25 09:24 50.17563 2.79069 35212 ft 466 kts 138°
2026-04-25 09:25 50.12824 2.85937 35209 ft 465 kts 138°
2026-04-25 09:25 50.08074 2.92801 35214 ft 465 kts 138°
2026-04-25 09:26 50.03331 2.99636 35212 ft 465 kts 138°
2026-04-25 09:26 49.98576 3.06470 35211 ft 466 kts 138°
2026-04-25 09:27 49.93813 3.13295 35222 ft 465 kts 138°
2026-04-25 09:27 49.89085 3.20054 35206 ft 466 kts 138°
2026-04-25 09:28 49.84314 3.26856 35202 ft 465 kts 138°
2026-04-25 09:28 49.79653 3.33807 35191 ft 466 kts 130°
2026-04-25 09:29 49.75623 3.41609 35202 ft 465 kts 128°
2026-04-25 09:29 49.71653 3.49522 35197 ft 465 kts 128°
2026-04-25 09:30 49.67654 3.57367 35203 ft 465 kts 129°
2026-04-25 09:30 49.63618 3.65176 35195 ft 465 kts 129°
2026-04-25 09:31 49.59571 3.72957 35197 ft 466 kts 129°
2026-04-25 09:31 49.55509 3.80741 35195 ft 466 kts 129°
2026-04-25 09:32 49.51456 3.88489 35194 ft 466 kts 129°
2026-04-25 09:32 49.47381 3.96257 35193 ft 466 kts 129°
2026-04-25 09:33 49.43298 4.04018 35188 ft 467 kts 129°
2026-04-25 09:33 49.39210 4.11771 35183 ft 467 kts 129°
2026-04-25 09:34 49.35114 4.19510 35182 ft 467 kts 129°
2026-04-25 09:34 49.31022 4.27222 35185 ft 467 kts 129°
2026-04-25 09:35 49.26911 4.34945 35185 ft 467 kts 129°
2026-04-25 09:35 49.22805 4.42641 35186 ft 467 kts 129°
2026-04-25 09:36 49.18694 4.50327 35182 ft 467 kts 129°
2026-04-25 09:36 49.14580 4.57986 35186 ft 466 kts 129°
2026-04-25 09:37 49.10464 4.65629 35178 ft 466 kts 129°
2026-04-25 09:37 49.06341 4.73266 35175 ft 466 kts 129°
2026-04-25 09:38 49.02215 4.80885 35175 ft 466 kts 129°
2026-04-25 09:38 48.98108 4.88449 35177 ft 465 kts 129°
2026-04-25 09:39 48.93959 4.96073 35172 ft 465 kts 129°
2026-04-25 09:39 48.89856 5.03586 35177 ft 465 kts 129°
2026-04-25 09:40 48.86302 5.11725 35189 ft 462 kts 118°
2026-04-25 09:40 48.84739 5.16017 35177 ft 463 kts 117°
2026-04-25 09:40 48.81653 5.24586 35177 ft 463 kts 117°
2026-04-25 09:41 48.78520 5.33133 35182 ft 463 kts 118°
2026-04-25 09:41 48.75357 5.41624 35184 ft 463 kts 118°
2026-04-25 09:42 48.72174 5.50109 35184 ft 463 kts 118°
2026-04-25 09:42 48.68989 5.58570 35186 ft 463 kts 118°
2026-04-25 09:43 48.65797 5.67028 35180 ft 463 kts 118°
2026-04-25 09:43 48.62597 5.75482 35172 ft 462 kts 118°
2026-04-25 09:44 48.59402 5.83894 35165 ft 461 kts 118°
2026-04-25 09:44 48.56200 5.92296 35156 ft 461 kts 118°
2026-04-25 09:45 48.53006 6.00655 35155 ft 460 kts 118°
2026-04-25 09:45 48.49808 6.08994 35154 ft 459 kts 118°
2026-04-25 09:46 48.46613 6.17299 35156 ft 458 kts 118°
2026-04-25 09:46 48.43418 6.25583 35157 ft 457 kts 118°
2026-04-25 09:47 48.40219 6.33849 35154 ft 456 kts 118°
2026-04-25 09:47 48.37019 6.42091 35157 ft 456 kts 118°
2026-04-25 09:48 48.33833 6.50272 35155 ft 456 kts 118°
2026-04-25 09:48 48.30619 6.58500 35157 ft 456 kts 119°
2026-04-25 09:49 48.27400 6.66718 35151 ft 457 kts 119°
2026-04-25 09:49 48.24168 6.74941 35149 ft 458 kts 119°
2026-04-25 09:50 48.20900 6.83230 35150 ft 459 kts 120°
2026-04-25 09:50 48.17660 6.91420 35149 ft 460 kts 120°
2026-04-25 09:51 48.14394 6.99657 35135 ft 460 kts 120°
2026-04-25 09:51 48.11114 7.07902 35139 ft 461 kts 121°
2026-04-25 09:52 48.07833 7.16124 35134 ft 461 kts 121°
2026-04-25 09:52 48.04543 7.24342 35126 ft 461 kts 122°
2026-04-25 09:53 48.01248 7.32549 35126 ft 460 kts 122°
2026-04-25 09:53 47.97953 7.40733 35132 ft 458 kts 122°
2026-04-25 09:54 47.94667 7.48868 35121 ft 457 kts 123°
2026-04-25 09:54 47.91395 7.56960 35130 ft 455 kts 122°
2026-04-25 09:55 47.88845 7.65586 35149 ft 455 kts 112°
2026-04-25 09:55 47.86701 7.74417 35148 ft 453 kts 111°
2026-04-25 09:56 47.84524 7.83223 35138 ft 453 kts 112°
2026-04-25 09:56 47.82301 7.91996 35135 ft 453 kts 112°
2026-04-25 09:57 47.80060 8.00745 35143 ft 452 kts 113°
2026-04-25 09:57 47.77812 8.09491 35139 ft 453 kts 113°
2026-04-25 09:58 47.75560 8.18231 35148 ft 453 kts 113°
2026-04-25 09:58 47.73297 8.26980 35135 ft 455 kts 113°
2026-04-25 09:59 47.71036 8.35692 35137 ft 456 kts 113°
2026-04-25 09:59 47.68507 8.44377 35120 ft 454 kts 123°
2026-04-25 10:00 47.64764 8.51832 35131 ft 452 kts 131°
2026-04-25 10:00 47.60790 8.59100 35124 ft 453 kts 131°
2026-04-25 10:01 47.56856 8.66349 35126 ft 454 kts 131°
2026-04-25 10:01 47.52916 8.73662 35129 ft 454 kts 131°
2026-04-25 10:02 47.48990 8.80957 35135 ft 455 kts 131°
2026-04-25 10:02 47.45028 8.88302 35126 ft 455 kts 131°
2026-04-25 10:03 47.41097 8.95567 35135 ft 455 kts 131°
2026-04-25 10:03 47.37139 9.02864 35131 ft 455 kts 131°
2026-04-25 10:04 47.33178 9.10147 35129 ft 455 kts 131°
2026-04-25 10:04 47.29207 9.17428 35126 ft 455 kts 132°
2026-04-25 10:05 47.25208 9.24740 35128 ft 455 kts 132°
2026-04-25 10:05 47.21259 9.31941 35123 ft 456 kts 132°
2026-04-25 10:06 47.17270 9.39197 35122 ft 456 kts 132°
2026-04-25 10:06 47.13284 9.46428 35128 ft 455 kts 132°
2026-04-25 10:07 47.09945 9.52472 35136 ft 454 kts 132°
2026-04-25 10:07 47.05991 9.59610 35134 ft 455 kts 132°
2026-04-25 10:08 47.01990 9.66812 35146 ft 456 kts 132°
2026-04-25 10:08 46.97979 9.74014 35146 ft 457 kts 132°
2026-04-25 10:09 46.93960 9.81214 35129 ft 457 kts 132°
2026-04-25 10:09 46.89922 9.88429 35140 ft 458 kts 132°
2026-04-25 10:10 46.85885 9.95621 35136 ft 458 kts 132°
2026-04-25 10:10 46.81844 10.02803 35150 ft 457 kts 132°
2026-04-25 10:11 46.77800 10.09972 35148 ft 457 kts 132°
2026-04-25 10:11 46.73771 10.17095 35157 ft 456 kts 133°
2026-04-25 10:12 46.69729 10.24223 35140 ft 456 kts 133°
2026-04-25 10:13 46.63670 10.34875 35138 ft 455 kts 133°
2026-04-25 10:13 46.59629 10.41958 35142 ft 455 kts 133°
2026-04-25 10:14 46.55634 10.49076 35132 ft 456 kts 128°
2026-04-25 10:14 46.52205 10.56831 35136 ft 457 kts 124°
2026-04-25 10:15 46.48911 10.64681 35139 ft 457 kts 124°
2026-04-25 10:15 46.45574 10.72527 35152 ft 457 kts 124°
2026-04-25 10:16 46.42204 10.80329 35130 ft 457 kts 125°
2026-04-25 10:16 46.38820 10.88099 35134 ft 457 kts 125°
2026-04-25 10:17 46.35408 10.95904 35125 ft 458 kts 125°
2026-04-25 10:17 46.31998 11.03687 35129 ft 458 kts 125°
2026-04-25 10:18 46.28584 11.11461 35153 ft 458 kts 125°
2026-04-25 10:18 46.25156 11.19247 35157 ft 458 kts 125°
2026-04-25 10:19 46.21729 11.27007 35139 ft 458 kts 125°
2026-04-25 10:19 46.18294 11.34765 35139 ft 459 kts 125°
2026-04-25 10:20 46.14858 11.42504 35148 ft 459 kts 125°
2026-04-25 10:20 46.11408 11.50250 35136 ft 459 kts 125°
2026-04-25 10:21 46.07954 11.57985 35133 ft 459 kts 125°
2026-04-25 10:21 46.04502 11.65693 35136 ft 459 kts 125°
2026-04-25 10:22 46.01037 11.73411 35133 ft 458 kts 125°
2026-04-25 10:22 45.97579 11.81092 35135 ft 458 kts 125°
2026-04-25 10:23 45.94109 11.88777 35127 ft 457 kts 125°
2026-04-25 10:23 45.90643 11.96433 35120 ft 457 kts 125°
2026-04-25 10:24 45.87172 12.04081 35105 ft 457 kts 125°
2026-04-25 10:24 45.83704 12.11695 35097 ft 456 kts 125°
2026-04-25 10:25 45.80231 12.19307 35083 ft 456 kts 125°
2026-04-25 10:25 45.76753 12.26909 35079 ft 455 kts 125°
2026-04-25 10:26 45.73286 12.34468 35083 ft 454 kts 125°
2026-04-25 10:26 45.69823 12.41991 35089 ft 454 kts 125°
2026-04-25 10:27 45.66343 12.49534 35077 ft 454 kts 125°
2026-04-25 10:27 45.62858 12.57065 35073 ft 454 kts 125°
2026-04-25 10:28 45.59367 12.64594 35084 ft 454 kts 125°
2026-04-25 10:28 45.55872 12.72110 35071 ft 454 kts 125°
2026-04-25 10:29 45.52382 12.79598 35067 ft 454 kts 125°
2026-04-25 10:29 45.48875 12.87098 35072 ft 454 kts 125°
2026-04-25 10:30 45.45369 12.94578 35068 ft 454 kts 125°
2026-04-25 10:30 45.41860 13.02046 35062 ft 453 kts 125°
2026-04-25 10:31 45.38350 13.09497 35066 ft 453 kts 125°
2026-04-25 10:31 45.34841 13.16930 35075 ft 453 kts 125°
2026-04-25 10:32 45.31329 13.24351 35072 ft 453 kts 124°
2026-04-25 10:32 45.28189 13.32132 35088 ft 453 kts 118°
2026-04-25 10:33 45.25293 13.40076 35070 ft 453 kts 118°
2026-04-25 10:33 45.22406 13.47942 35078 ft 453 kts 118°
2026-04-25 10:34 45.19432 13.55895 35073 ft 453 kts 119°
2026-04-25 10:34 45.16479 13.63701 35081 ft 453 kts 119°
2026-04-25 10:35 45.13486 13.71580 35071 ft 453 kts 119°
2026-04-25 10:35 45.10499 13.79424 35079 ft 453 kts 119°
2026-04-25 10:36 45.07498 13.87285 35078 ft 453 kts 119°
2026-04-25 10:36 45.04496 13.95128 35071 ft 453 kts 119°
2026-04-25 10:37 45.01492 14.02953 35076 ft 453 kts 119°
2026-04-25 10:37 44.98486 14.10763 35066 ft 453 kts 119°
2026-04-25 10:38 44.95474 14.18565 35075 ft 452 kts 119°
2026-04-25 10:38 44.92469 14.26331 35074 ft 451 kts 119°
2026-04-25 10:39 44.89449 14.34109 35079 ft 451 kts 119°
2026-04-25 10:39 44.86437 14.41846 35078 ft 451 kts 119°
2026-04-25 10:40 44.83417 14.49583 35071 ft 450 kts 119°
2026-04-25 10:40 44.80398 14.57297 35074 ft 449 kts 119°
2026-04-25 10:41 44.77377 14.64994 35075 ft 449 kts 119°
2026-04-25 10:41 44.74354 14.72670 35076 ft 448 kts 119°
2026-04-25 10:42 44.71346 14.80292 35075 ft 448 kts 119°
2026-04-25 10:42 44.68317 14.87950 35072 ft 449 kts 119°
2026-04-25 10:43 44.65276 14.95613 35079 ft 449 kts 119°
2026-04-25 10:43 44.62229 15.03269 35082 ft 450 kts 119°
2026-04-25 10:44 44.59172 15.10929 35076 ft 450 kts 119°
2026-04-25 10:44 44.56107 15.18592 35073 ft 451 kts 119°
2026-04-25 10:45 44.53029 15.26264 35074 ft 451 kts 119°
2026-04-25 10:45 44.49945 15.33926 35072 ft 451 kts 119°
2026-04-25 10:46 44.46858 15.41576 35074 ft 451 kts 119°
2026-04-25 10:46 44.43766 15.49221 35075 ft 451 kts 118°
2026-04-25 10:47 44.40674 15.56848 35068 ft 450 kts 118°
2026-04-25 10:47 44.37575 15.64469 35077 ft 450 kts 118°
2026-04-25 10:48 44.34486 15.72044 35078 ft 449 kts 118°
2026-04-25 10:48 44.31390 15.79617 35068 ft 448 kts 118°
2026-04-25 10:49 44.28297 15.87161 35076 ft 447 kts 118°
2026-04-25 10:49 44.25209 15.94674 35075 ft 446 kts 118°
2026-04-25 10:50 44.22117 16.02177 35074 ft 446 kts 118°
2026-04-25 10:50 44.19014 16.09689 35078 ft 445 kts 118°
2026-04-25 10:51 44.15943 16.17102 35074 ft 444 kts 118°
2026-04-25 10:51 44.12853 16.24541 35071 ft 443 kts 119°
2026-04-25 10:52 44.09761 16.31967 35070 ft 443 kts 118°
2026-04-25 10:52 44.07166 16.38188 35098 ft 444 kts 118°
2026-04-25 10:53 44.04061 16.45610 35073 ft 445 kts 119°
2026-04-25 10:53 44.00655 16.52803 35097 ft 447 kts 126°
2026-04-25 10:54 43.96837 16.59645 35098 ft 449 kts 127°
2026-04-25 10:54 43.92985 16.66490 35085 ft 450 kts 126°
2026-04-25 10:55 43.89169 16.73360 35075 ft 449 kts 126°
2026-04-25 10:55 43.85395 16.80190 35078 ft 450 kts 126°
2026-04-25 10:56 43.81566 16.87114 35070 ft 449 kts 126°
2026-04-25 10:56 43.77776 16.93954 35079 ft 448 kts 126°
2026-04-25 10:57 43.73992 17.00764 35082 ft 447 kts 126°
2026-04-25 10:57 43.70196 17.07577 35083 ft 446 kts 126°
2026-04-25 10:58 43.66426 17.14328 35086 ft 446 kts 126°
2026-04-25 10:58 43.62638 17.21097 35076 ft 445 kts 126°
2026-04-25 10:59 43.58855 17.27840 35082 ft 444 kts 126°
2026-04-25 10:59 43.55068 17.34577 35095 ft 445 kts 126°
2026-04-25 11:00 43.51280 17.41299 35076 ft 445 kts 126°
2026-04-25 11:00 43.47466 17.48051 35070 ft 446 kts 126°
2026-04-25 11:01 43.43957 17.54249 35072 ft 447 kts 126°
2026-04-25 11:01 43.40128 17.60999 35062 ft 447 kts 126°
2026-04-25 11:02 43.36298 17.67735 35058 ft 448 kts 126°
2026-04-25 11:02 43.32451 17.74485 35059 ft 448 kts 126°
2026-04-25 11:03 43.28618 17.81200 35056 ft 449 kts 126°
2026-04-25 11:03 43.24740 17.87926 35044 ft 450 kts 127°
2026-04-25 11:04 43.20728 17.94508 35046 ft 450 kts 128°
2026-04-25 11:04 43.16687 18.01047 35052 ft 449 kts 128°
2026-04-25 11:05 43.12686 18.07541 35056 ft 448 kts 127°
2026-04-25 11:05 43.08669 18.14072 35061 ft 448 kts 127°
2026-04-25 11:06 43.04655 18.20595 35066 ft 448 kts 127°
2026-04-25 11:06 43.00640 18.27106 35060 ft 447 kts 127°
2026-04-25 11:07 42.96633 18.33586 35069 ft 446 kts 127°
2026-04-25 11:07 42.92633 18.40039 35063 ft 445 kts 127°
2026-04-25 11:08 42.88627 18.46491 35061 ft 444 kts 127°
2026-04-25 11:08 42.84645 18.52890 35066 ft 442 kts 127°
2026-04-25 11:09 42.80667 18.59269 35070 ft 441 kts 127°
2026-04-25 11:09 42.76693 18.65626 35068 ft 440 kts 127°
2026-04-25 11:10 42.72721 18.71967 35070 ft 440 kts 127°
2026-04-25 11:10 42.68749 18.78294 35070 ft 441 kts 127°
2026-04-25 11:11 42.64758 18.84638 35066 ft 441 kts 127°
2026-04-25 11:11 42.60772 18.90960 35062 ft 441 kts 127°
2026-04-25 11:12 42.56777 18.97282 35069 ft 441 kts 127°
2026-04-25 11:12 42.52785 19.03590 35067 ft 442 kts 127°
2026-04-25 11:13 42.48761 19.09933 35066 ft 442 kts 127°
2026-04-25 11:13 42.44745 19.16249 35059 ft 443 kts 127°
2026-04-25 11:14 42.40714 19.22578 35048 ft 444 kts 127°
2026-04-25 11:14 42.36953 19.29135 35053 ft 439 kts 120°
2026-04-25 11:15 42.33690 19.36082 35045 ft 438 kts 118°
2026-04-25 11:15 42.30459 19.43046 35045 ft 437 kts 118°
2026-04-25 11:16 42.25564 19.53374 35048 ft 437 kts 119°
2026-04-25 11:16 42.22272 19.60242 35056 ft 436 kts 119°
2026-04-25 11:17 42.18976 19.67102 35056 ft 436 kts 119°
2026-04-25 11:17 42.15671 19.73966 35054 ft 436 kts 119°
2026-04-25 11:18 42.12373 19.80801 35047 ft 435 kts 119°
2026-04-25 11:18 42.09080 19.87609 35056 ft 434 kts 119°
2026-04-25 11:19 42.05776 19.94424 35061 ft 433 kts 119°
2026-04-25 11:19 42.02481 20.01209 35063 ft 433 kts 119°
2026-04-25 11:20 41.99184 20.07982 35072 ft 433 kts 119°
2026-04-25 11:20 41.95881 20.14754 35065 ft 434 kts 119°
2026-04-25 11:21 41.92561 20.21540 35058 ft 434 kts 119°
2026-04-25 11:21 41.89246 20.28301 35063 ft 434 kts 119°
2026-04-25 11:22 41.86485 20.33923 35070 ft 434 kts 119°
2026-04-25 11:22 41.82592 20.41833 35065 ft 434 kts 119°
2026-04-25 11:23 41.79260 20.48588 35073 ft 435 kts 119°
2026-04-25 11:23 41.75942 20.55304 35063 ft 435 kts 119°
2026-04-25 11:24 41.72618 20.62074 35063 ft 435 kts 119°
2026-04-25 11:24 41.69298 20.68839 35070 ft 435 kts 119°
2026-04-25 11:25 41.65968 20.75605 35063 ft 436 kts 119°
2026-04-25 11:25 41.62629 20.82371 35064 ft 435 kts 119°
2026-04-25 11:26 41.59297 20.89113 35071 ft 435 kts 119°
2026-04-25 11:26 41.55952 20.95861 35078 ft 435 kts 119°
2026-04-25 11:27 41.52605 21.02596 35078 ft 435 kts 119°
2026-04-25 11:27 41.49801 21.08230 35068 ft 435 kts 119°
2026-04-25 11:28 41.45913 21.16026 35069 ft 435 kts 120°
2026-04-25 11:28 41.42565 21.22720 35072 ft 435 kts 120°
2026-04-25 11:29 41.39201 21.29435 35068 ft 435 kts 120°
2026-04-25 11:29 41.35839 21.36127 35070 ft 435 kts 120°
2026-04-25 11:30 41.32471 21.42819 35075 ft 435 kts 120°
2026-04-25 11:30 41.29107 21.49486 35072 ft 435 kts 120°
2026-04-25 11:31 41.25731 21.56168 35078 ft 435 kts 120°
2026-04-25 11:31 41.22358 21.62826 35070 ft 435 kts 120°
2026-04-25 11:32 41.18975 21.69489 35068 ft 435 kts 120°
2026-04-25 11:32 41.15598 21.76127 35066 ft 435 kts 120°
2026-04-25 11:33 41.12211 21.82772 35060 ft 434 kts 120°
2026-04-25 11:33 41.08827 21.89395 35070 ft 434 kts 120°
2026-04-25 11:34 41.05354 21.95948 35068 ft 435 kts 123°
2026-04-25 11:34 41.01684 22.02311 35060 ft 435 kts 123°
2026-04-25 11:35 40.98010 22.08661 35060 ft 435 kts 123°
2026-04-25 11:35 40.94351 22.15045 35061 ft 434 kts 123°
2026-04-25 11:36 40.90702 22.21425 35069 ft 435 kts 123°
2026-04-25 11:36 40.87059 22.27785 35063 ft 434 kts 123°
2026-04-25 11:37 40.83437 22.34099 35065 ft 434 kts 123°
2026-04-25 11:37 40.79786 22.40444 35063 ft 434 kts 123°
2026-04-25 11:38 40.76108 22.46822 35055 ft 434 kts 123°
2026-04-25 11:38 40.72454 22.53142 35056 ft 434 kts 123°
2026-04-25 11:39 40.68820 22.59417 35058 ft 433 kts 123°
2026-04-25 11:39 40.65139 22.65763 35055 ft 433 kts 123°
2026-04-25 11:40 40.62095 22.71004 35055 ft 432 kts 124°
2026-04-25 11:40 40.58439 22.77284 35053 ft 432 kts 124°
2026-04-25 11:41 40.54792 22.83533 35045 ft 432 kts 124°
2026-04-25 11:41 40.51124 22.89812 35048 ft 432 kts 124°
2026-04-25 11:42 40.47469 22.96057 35047 ft 431 kts 124°
2026-04-25 11:42 40.44015 23.02479 35049 ft 428 kts 117°
2026-04-25 11:43 40.41028 23.09216 35045 ft 428 kts 116°
2026-04-25 11:43 40.38064 23.16012 35049 ft 428 kts 116°
2026-04-25 11:44 40.35070 23.22767 35046 ft 429 kts 117°
2026-04-25 11:44 40.32047 23.29506 35050 ft 429 kts 117°
2026-04-25 11:45 40.29019 23.36219 35048 ft 429 kts 117°
2026-04-25 11:45 40.25997 23.42901 35043 ft 429 kts 117°
2026-04-25 11:46 40.22958 23.49609 35047 ft 429 kts 117°
2026-04-25 11:46 40.19894 23.56361 35044 ft 428 kts 117°
2026-04-25 11:47 40.16869 23.63011 35045 ft 428 kts 117°
2026-04-25 11:47 40.13805 23.69731 35045 ft 427 kts 117°
2026-04-25 11:48 40.10784 23.76344 35047 ft 427 kts 117°
2026-04-25 11:48 40.07739 23.82994 35045 ft 426 kts 118°
2026-04-25 11:49 40.04691 23.89634 35042 ft 426 kts 118°
2026-04-25 11:49 40.01644 23.96260 35052 ft 426 kts 118°
2026-04-25 11:50 39.98599 24.02872 35041 ft 425 kts 118°
2026-04-25 11:50 39.95546 24.09482 35047 ft 425 kts 118°
2026-04-25 11:51 39.92501 24.16062 35046 ft 424 kts 118°
2026-04-25 11:51 39.89444 24.22653 35044 ft 424 kts 118°
2026-04-25 11:52 39.86397 24.29210 35050 ft 424 kts 118°
2026-04-25 11:52 39.83333 24.35789 35045 ft 424 kts 118°
2026-04-25 11:53 39.80272 24.42350 35047 ft 425 kts 118°
2026-04-25 11:53 39.77200 24.48919 35046 ft 425 kts 118°
2026-04-25 11:54 39.74126 24.55478 35048 ft 426 kts 118°
2026-04-25 11:55 39.69495 24.65338 35045 ft 427 kts 119°
2026-04-25 11:55 39.66396 24.71915 35047 ft 427 kts 119°
2026-04-25 11:56 39.63300 24.78472 35047 ft 427 kts 119°
2026-04-25 11:56 39.60185 24.85056 35048 ft 427 kts 120°
2026-04-25 11:57 39.57096 24.91570 35046 ft 428 kts 120°
2026-04-25 11:57 39.53973 24.98145 35045 ft 428 kts 120°
2026-04-25 11:58 39.50846 25.04713 35051 ft 428 kts 120°
2026-04-25 11:58 39.47720 25.11266 35044 ft 429 kts 120°
2026-04-25 11:59 39.44581 25.17831 35044 ft 428 kts 120°
2026-04-25 11:59 39.41443 25.24383 35047 ft 428 kts 120°
2026-04-25 12:00 39.36730 25.34200 35040 ft 429 kts 120°
2026-04-25 12:01 39.32004 25.44009 35038 ft 429 kts 120°
2026-04-25 12:01 39.28846 25.50547 35038 ft 428 kts 121°
2026-04-25 12:02 39.24112 25.60323 35039 ft 428 kts 121°
2026-04-25 12:02 39.20956 25.66824 35033 ft 428 kts 121°
2026-04-25 12:03 39.17790 25.73332 35027 ft 428 kts 121°
2026-04-25 12:03 39.14625 25.79826 35028 ft 428 kts 121°
2026-04-25 12:04 39.11454 25.86322 35028 ft 429 kts 121°
2026-04-25 12:04 39.08275 25.92816 35027 ft 428 kts 121°
2026-04-25 12:05 39.05088 25.99315 35031 ft 429 kts 121°
2026-04-25 12:05 39.01923 26.05753 35020 ft 429 kts 122°
2026-04-25 12:06 38.98727 26.12244 35030 ft 430 kts 122°
2026-04-25 12:06 38.95528 26.18728 35022 ft 431 kts 122°
2026-04-25 12:07 38.92309 26.25241 35024 ft 431 kts 122°
2026-04-25 12:07 38.89090 26.31742 35019 ft 432 kts 122°
2026-04-25 12:08 38.85860 26.38250 35019 ft 433 kts 123°
2026-04-25 12:08 38.83202 26.45149 35023 ft 433 kts 107°
2026-04-25 12:09 38.82074 26.52732 35020 ft 433 kts 98°
2026-04-25 12:09 38.81209 26.60369 35016 ft 433 kts 98°
2026-04-25 12:10 38.80297 26.68018 35016 ft 434 kts 99°
2026-04-25 12:10 38.79350 26.75656 35013 ft 434 kts 99°
2026-04-25 12:11 38.78396 26.83282 35011 ft 434 kts 99°
2026-04-25 12:11 38.77437 26.90920 35006 ft 434 kts 99°
2026-04-25 12:12 38.76012 26.97056 35011 ft 433 kts 115°
2026-04-25 12:12 38.73975 27.01494 35010 ft 432 kts 127°
2026-04-25 12:12 38.72167 27.04562 35011 ft 433 kts 128°
2026-04-25 12:13 38.68486 27.10671 34999 ft 433 kts 128°
2026-04-25 12:13 38.64829 27.16801 35002 ft 433 kts 127°
2026-04-25 12:14 38.61195 27.22953 35004 ft 433 kts 127°
2026-04-25 12:14 38.57563 27.29101 35002 ft 433 kts 128°
2026-04-25 12:15 38.53927 27.35241 34986 ft 434 kts 128°
2026-04-25 12:15 38.50280 27.41388 34990 ft 434 kts 128°
2026-04-25 12:16 38.46630 27.47522 34999 ft 434 kts 128°
2026-04-25 12:16 38.42968 27.53668 34983 ft 435 kts 128°
2026-04-25 12:17 38.39308 27.59803 35000 ft 435 kts 128°
2026-04-25 12:17 38.35684 27.65867 34875 ft 423 kts 128°
2026-04-25 12:18 38.33914 27.68826 34590 ft 416 kts 129°
2026-04-25 12:18 38.32173 27.71733 34226 ft 412 kts 129°
2026-04-25 12:18 38.30461 27.74589 33871 ft 409 kts 128°
2026-04-25 12:18 38.28715 27.77497 33495 ft 407 kts 128°
2026-04-25 12:19 38.25641 27.81961 32876 ft 401 kts 141°
2026-04-25 12:19 38.22670 27.84760 32419 ft 395 kts 146°
2026-04-25 12:19 38.20415 27.86751 32046 ft 393 kts 146°
2026-04-25 12:20 38.18180 27.88713 31686 ft 391 kts 146°
2026-04-25 12:20 38.15973 27.90656 31332 ft 388 kts 146°
2026-04-25 12:20 38.13764 27.92611 30977 ft 386 kts 146°
2026-04-25 12:20 38.11544 27.94585 30611 ft 383 kts 146°
2026-04-25 12:21 38.09398 27.96498 30277 ft 381 kts 145°
2026-04-25 12:21 38.07242 27.98422 29929 ft 379 kts 145°
2026-04-25 12:21 38.05099 28.00335 29562 ft 376 kts 145°
2026-04-25 12:21 38.02967 28.02239 29221 ft 373 kts 145°
2026-04-25 12:22 38.00843 28.04133 28856 ft 371 kts 145°
2026-04-25 12:22 37.98740 28.06008 28500 ft 368 kts 145°
2026-04-25 12:22 37.96652 28.07868 28136 ft 366 kts 145°
2026-04-25 12:22 37.94572 28.09719 27780 ft 364 kts 145°
2026-04-25 12:23 37.92509 28.11555 27435 ft 361 kts 145°
2026-04-25 12:23 37.90469 28.13368 27093 ft 359 kts 145°
2026-04-25 12:23 37.88429 28.15180 26739 ft 356 kts 145°
2026-04-25 12:23 37.86405 28.16976 26391 ft 354 kts 145°
2026-04-25 12:24 37.84398 28.18757 26043 ft 352 kts 145°
2026-04-25 12:24 37.82395 28.20532 25707 ft 349 kts 146°
2026-04-25 12:24 37.80415 28.22286 25361 ft 347 kts 146°
2026-04-25 12:24 37.78444 28.24032 25035 ft 344 kts 146°
2026-04-25 12:25 37.76488 28.25764 24702 ft 342 kts 146°
2026-04-25 12:25 37.74546 28.27481 24367 ft 340 kts 146°
2026-04-25 12:25 37.72625 28.29179 24040 ft 338 kts 146°
2026-04-25 12:25 37.70695 28.30883 23726 ft 335 kts 146°
2026-04-25 12:26 37.68793 28.32561 23380 ft 333 kts 146°
2026-04-25 12:26 37.66896 28.34235 23051 ft 331 kts 146°
2026-04-25 12:26 37.65017 28.35891 22725 ft 329 kts 146°
2026-04-25 12:26 37.63147 28.37539 22411 ft 327 kts 146°
2026-04-25 12:27 37.61293 28.39171 22084 ft 325 kts 146°
2026-04-25 12:27 37.59472 28.40773 21764 ft 323 kts 146°
2026-04-25 12:27 37.58231 28.41864 21548 ft 321 kts 147°
2026-04-25 12:27 37.56403 28.43471 21241 ft 319 kts 147°
2026-04-25 12:28 37.54591 28.45063 20937 ft 317 kts 147°
2026-04-25 12:28 37.52794 28.46641 20618 ft 315 kts 147°
2026-04-25 12:28 37.50996 28.48218 20314 ft 314 kts 147°
2026-04-25 12:28 37.49191 28.49754 19985 ft 312 kts 153°
2026-04-25 12:29 37.47187 28.50664 19731 ft 305 kts 167°
2026-04-25 12:29 37.45131 28.51281 19419 ft 303 kts 168°
2026-04-25 12:29 37.43080 28.51888 19123 ft 302 kts 168°
2026-04-25 12:29 37.41034 28.52502 18812 ft 301 kts 168°
2026-04-25 12:30 37.38999 28.53122 18508 ft 300 kts 168°
2026-04-25 12:30 37.36979 28.53745 18206 ft 299 kts 168°
2026-04-25 12:30 37.34965 28.54369 17899 ft 298 kts 168°
2026-04-25 12:30 37.32961 28.54993 17603 ft 296 kts 168°
2026-04-25 12:31 37.30989 28.55606 17269 ft 297 kts 168°
2026-04-25 12:31 37.28942 28.56242 16844 ft 303 kts 168°
2026-04-25 12:31 37.26881 28.56883 16428 ft 307 kts 168°
2026-04-25 12:31 37.24790 28.57533 16009 ft 309 kts 168°
2026-04-25 12:32 37.22721 28.58176 15522 ft 312 kts 168°
2026-04-25 12:32 37.20586 28.58839 15068 ft 314 kts 167°
2026-04-25 12:32 37.18449 28.59502 14643 ft 315 kts 167°
2026-04-25 12:32 37.16351 28.60161 14228 ft 317 kts 165°
2026-04-25 12:33 37.14313 28.61217 18698 ft 324 kts 143°
2026-04-25 12:33 37.12902 28.63410 18328 ft 329 kts 117°
2026-04-25 12:33 37.12191 28.66160 17922 ft 334 kts 100°
2026-04-25 12:33 37.12294 28.69077 17495 ft 340 kts 81°
2026-04-25 12:34 37.12788 28.71992 17053 ft 342 kts 80°
2026-04-25 12:34 37.13260 28.74914 16598 ft 343 kts 81°
2026-04-25 12:34 37.13699 28.77856 16152 ft 344 kts 82°
2026-04-25 12:34 37.13980 28.79809 15800 ft 346 kts 82°
2026-04-25 12:35 37.14179 28.83828 15089 ft 346 kts 100°
2026-04-25 12:35 37.13573 28.86714 14574 ft 343 kts 115°
2026-04-25 12:35 37.12559 28.89429 14059 ft 344 kts 118°
2026-04-25 12:35 37.11528 28.92144 13590 ft 344 kts 117°
2026-04-25 12:36 37.10514 28.94847 13170 ft 341 kts 117°
2026-04-25 12:36 37.09519 28.97533 12737 ft 340 kts 117°
2026-04-25 12:36 37.08534 29.00212 12299 ft 337 kts 117°
2026-04-25 12:36 37.07558 29.02878 11901 ft 336 kts 117°
2026-04-25 12:37 37.06578 29.05543 11461 ft 336 kts 117°
2026-04-25 12:37 37.05471 29.08094 11017 ft 332 kts 130°
2026-04-25 12:37 37.03770 29.09988 10593 ft 327 kts 151°
2026-04-25 12:37 37.01672 29.11006 10170 ft 323 kts 170°
2026-04-25 12:38 36.99438 29.11075 9746 ft 322 kts 189°
2026-04-25 12:38 36.97328 29.10177 9321 ft 322 kts 210°
2026-04-25 12:38 36.95661 29.08321 8886 ft 323 kts 233°
2026-04-25 12:38 36.94688 29.05797 8466 ft 325 kts 255°
2026-04-25 12:39 36.94560 29.02988 8047 ft 327 kts 278°
2026-04-25 12:39 36.95277 29.00310 7633 ft 326 kts 300°
2026-04-25 12:39 36.96671 28.98091 7223 ft 325 kts 316°
2026-04-25 12:39 36.98205 28.96031 6771 ft 324 kts 302°
2026-04-25 12:40 36.99029 28.93428 6353 ft 323 kts 278°
2026-04-25 12:40 36.98950 28.90655 5927 ft 321 kts 254°
2026-04-25 12:40 36.98114 28.88111 5656 ft 313 kts 242°
2026-04-25 12:40 36.97077 28.85743 5394 ft 309 kts 233°
2026-04-25 12:41 36.95459 28.84060 5109 ft 302 kts 201°
2026-04-25 12:41 36.93450 28.83519 4890 ft 292 kts 181°
2026-04-25 12:41 36.91434 28.83565 4627 ft 287 kts 175°
2026-04-25 12:41 36.89452 28.83733 4394 ft 283 kts 175°
2026-04-25 12:42 36.87500 28.83890 3924 ft 288 kts 175°
2026-04-25 12:42 36.86150 28.83985 3609 ft 288 kts 176°
2026-04-25 12:42 36.83545 28.83542 2954 ft 285 kts 195°
2026-04-25 12:42 36.81703 28.82810 2449 ft 269 kts 195°
2026-04-25 12:43 36.79950 28.82195 1985 ft 257 kts 194°
2026-04-25 12:43 36.78261 28.81624 1564 ft 245 kts 194°
2026-04-25 12:43 36.75132 28.80590 804 ft 221 kts 195°
2026-04-25 12:44 36.73667 28.80148 473 ft 214 kts 194°
2026-04-25 12:44 36.72162 28.79710 1080 ft 234 kts 193°
2026-04-25 12:44 36.68749 28.79590 3124 ft 239 kts 155°
2026-04-25 12:45 36.67062 28.80466 3366 ft 294 kts 154°
2026-04-25 12:45 36.65055 28.81759 3022 ft 358 kts 148°
2026-04-25 12:45 36.60396 28.83873 4996 ft 292 kts 166°
2026-04-25 12:46 36.58491 28.84476 5239 ft 278 kts 160°
2026-04-25 12:46 36.56650 28.85231 5537 ft 279 kts 162°
2026-04-25 12:46 36.54736 28.85572 5824 ft 279 kts 179°
2026-04-25 12:46 36.52793 28.85405 6096 ft 283 kts 188°
2026-04-25 12:47 36.50967 28.84492 6211 ft 286 kts 214°
2026-04-25 12:47 36.49646 28.82684 6141 ft 283 kts 241°
2026-04-25 12:47 36.49129 28.80390 6040 ft 274 kts 267°
2026-04-25 12:47 36.49216 28.78066 5916 ft 265 kts 274°
2026-04-25 12:48 36.49393 28.75816 5743 ft 258 kts 275°
2026-04-25 12:48 36.49579 28.73627 5544 ft 253 kts 277°
2026-04-25 12:48 36.50198 28.71621 5145 ft 254 kts 310°
2026-04-25 12:48 36.51665 28.70446 4680 ft 251 kts 352°
2026-04-25 12:49 36.53315 28.70661 4580 ft 238 kts 29°
2026-04-25 12:49 36.54820 28.71539 4491 ft 243 kts 15°
2026-04-25 12:49 36.56513 28.71523 4351 ft 248 kts 348°
2026-04-25 12:49 36.58162 28.70912 4252 ft 248 kts 344°
2026-04-25 12:50 36.59796 28.70232 4122 ft 248 kts 343°
2026-04-25 12:50 36.61418 28.69547 4019 ft 244 kts 343°
2026-04-25 12:50 36.63011 28.68867 4006 ft 240 kts 343°
2026-04-25 12:50 36.64587 28.68190 3997 ft 240 kts 343°
2026-04-25 12:51 36.66201 28.67663 4011 ft 241 kts 355°
2026-04-25 12:51 36.67878 28.67412 4018 ft 244 kts 355°
2026-04-25 12:51 36.69554 28.67157 4003 ft 242 kts 355°
2026-04-25 12:51 36.71221 28.66902 3998 ft 241 kts 357°
2026-04-25 12:52 36.72882 28.66908 4020 ft 237 kts
2026-04-25 12:52 36.74514 28.67020 4021 ft 234 kts
2026-04-25 12:52 36.76162 28.67125 3990 ft 238 kts
2026-04-25 12:52 36.77829 28.67232 4021 ft 241 kts
2026-04-25 12:53 36.79499 28.67361 3992 ft 239 kts
2026-04-25 12:53 36.81140 28.67498 3981 ft 235 kts 12°
2026-04-25 12:53 36.82707 28.68041 4017 ft 234 kts 20°
2026-04-25 12:53 36.84259 28.68627 4004 ft 232 kts 19°
2026-04-25 12:54 36.85827 28.69192 4016 ft 238 kts 18°
2026-04-25 12:54 36.87422 28.69771 4006 ft 238 kts 18°
2026-04-25 12:54 36.89012 28.70347 4018 ft 238 kts 18°
2026-04-25 12:54 36.90509 28.71172 3990 ft 235 kts 42°
2026-04-25 12:55 36.91446 28.72780 4009 ft 229 kts 73°
2026-04-25 12:55 36.91572 28.73393 4014 ft 229 kts 84°
2026-04-25 12:55 36.91143 28.76631 4030 ft 227 kts 110°
2026-04-25 12:55 36.90618 28.78467 4074 ft 221 kts 109°
2026-04-25 12:56 36.90121 28.80261 4104 ft 217 kts 109°
2026-04-25 12:56 36.89630 28.82006 4197 ft 207 kts 110°
2026-04-25 12:56 36.88978 28.83577 4258 ft 206 kts 134°
2026-04-25 12:56 36.87712 28.84369 3988 ft 221 kts 174°
2026-04-25 12:57 36.86178 28.84232 3678 ft 223 kts 187°
2026-04-25 12:57 36.84676 28.83815 3307 ft 221 kts 193°
2026-04-25 12:57 36.83199 28.83295 2917 ft 215 kts 193°
2026-04-25 12:57 36.81786 28.82810 2525 ft 208 kts 193°
2026-04-25 12:58 36.80412 28.82343 2161 ft 203 kts 194°
2026-04-25 12:58 36.79076 28.81888 1822 ft 195 kts 194°
2026-04-25 12:58 36.78221 28.81597 1641 ft 187 kts 194°
2026-04-25 12:58 36.77004 28.81243 1372 ft 174 kts 192°
2026-04-25 12:59 36.75851 28.80843 991 ft 171 kts 197°
2026-04-25 12:59 36.74693 28.80423 667 ft 174 kts 197°
2026-04-25 12:59 36.73546 28.80029 364 ft 167 kts 196°
2026-04-25 12:59 36.72441 28.79644 60 ft 163 kts 197°
2026-04-25 13:00 36.71432 28.79268 12 ft 133 kts 190°
2026-04-25 13:00 36.70933 28.79114 12 ft 89 kts 202°
2026-04-25 13:00 36.70614 28.78919 12 ft 18 kts 232°
2026-04-25 13:00 36.70593 28.78817 14 ft 6 kts 298°
2026-04-25 13:01 36.70634 28.78807 12 ft 6 kts
2026-04-25 13:01 36.70676 28.78816 12 ft 6 kts 16°
2026-04-25 13:01 36.70717 28.78831 14 ft 6 kts 16°
2026-04-25 13:01 36.70780 28.78854 14 ft 16 kts 15°
2026-04-25 13:02 36.70912 28.78899 12 ft 24 kts 15°
2026-04-25 13:02 36.71073 28.78955 12 ft 23 kts 15°
2026-04-25 13:02 36.71223 28.79007 12 ft 18 kts 16°
2026-04-25 13:02 36.71324 28.79003 12 ft 14 kts 306°
2026-04-25 13:03 36.71354 28.78890 12 ft 13 kts 281°
2026-04-25 13:03 36.71409 28.78837 12 ft 12 kts 20°
2026-04-25 13:03 36.71484 28.78874 11 ft 12 kts 18°
2026-04-25 13:03 36.71560 28.78899 11 ft 11 kts
2026-04-25 13:04 36.71634 28.78913 11 ft 10 kts 338°
2026-04-25 13:04 36.71655 28.78855 11 ft 7 kts 287°
2026-04-25 13:04 36.71660 28.78835 11 ft 0 kts 284°